Wind_Speed
5 4 4 3 2 3 2 2 3 5 7 8 9 10 9 9 8 7 5 5 5 5 5 5 4 4 3 4 4 4 4 4 3 3 3 3 3 3 3 3 3 4 4 5 6 6 7 7 8
7 6 6 6 5 5 4 3 2 3 5 6 8 9 9 9 8 7 6 5 5 5 5 5 4 3 3 4 3 4 4 4 4 3 3 3 3 3 3 4 4 4 4 4 5 5 5 5 6
9 8 8 9 9 8 7 6 5 4 5 6 8 9 10 10 9 8 7 5 4 5 5 4 3 3 3 3 3 4 4 5 5 5 4 4 5 5 5 6 6 6 6 6 6 6 6 5 5
10 10 10 11 12 10 9 9 8 7 6 7 9 10 11 11 11 9 7 6 5 6 5 4 3 3 3 4 4 5 5 6 6 6 6 6 7 7 7 8 8 9 9 9 8 8 8 8 8
12 12 13 14 14 13 12 11 10 9 8 9 9 10 12 12 11 10 8 6 6 6 6 6 5 4 5 5 6 7 7 7 7 7 8 8 9 9 9 9 10 11 11 11 11 11 12 11 11
14 14 15 17 17 15 14 13 11 10 9 9 9 10 12 13 12 11 9 7 7 7 8 8 7 6 6 7 8 8 8 8 8 8 9 9 9 10 10 11 12 13 13 13 13 13 14 14 14
17 16 17 19 19 19 17 16 14 12 10 10 10 11 12 13 13 12 10 10 9 9 9 9 8 8 8 9 9 9 9 9 9 10 10 11 11 12 12 13 14 15 15 15 16 16 16 16 16
19 18 20 22 22 21 20 19 17 14 13 12 11 11 12 13 13 13 12 12 11 11 11 11 11 11 11 10 10 11 11 11 12 12 12 13 13 14 14 15 16 17 17 18 18 18 19 19 19
22 20 22 25 25 24 23 21 20 18 17 16 13 13 13 13 13 14 14 14 14 13 13 13 13 13 12 12 13 13 13 14 14 15 15 16 16 17 17 18 19 20 20 21 21 21 21 22 22
24 23 26 28 29 27 26 24 23 21 20 18 15 14 15 14 15 17 18 17 17 16 16 16 17 17 16 16 16 17 17 17 18 19 19 19 19 19 20 20 21 22 23 23 24 23 24 24 24
24 24 28 31 31 30 29 28 26 24 23 20 17 17 18 18 19 21 21 20 20 20 20 19 20 20 20 20 20 20 21 22 22 22 22 22 22 22 22 22 23 24 25 25 25 25 26 25 26
23 25 27 31 32 32 32 31 29 28 25 23 20 20 21 22 22 23 23 22 22 22 22 22 23 23 24 25 24 23 24 24 25 25 24 24 24 24 23 24 26 27 27 27 27 26 27 27 28
22 23 26 29 31 32 32 32 31 30 27 25 24 24 23 23 23 23 22 21 22 22 23 24 24 25 26 26 26 26 26 26 26 25 25 25 25 25 26 27 28 28 29 29 29 29 29 29 29
19 21 23 26 29 31 32 32 32 30 28 27 27 26 26 24 22 21 20 20 21 22 22 23 24 25 24 25 26 25 24 25 26 26 26 26 26 27 29 29 30 30 30 31 31 31 31 30 30
16 17 20 23 26 29 30 31 31 30 29 29 28 27 25 22 20 19 20 20 20 20 21 21 22 23 24 24 25 26 27 27 27 28 28 29 29 31 32 32 32 32 32 32 32 31 31 32 31
12 13 16 20 23 26 28 28 27 27 27 27 26 25 23 21 19 19 19 20 19 18 19 20 21 22 23 24 25 26 27 27 28 29 29 30 31 31 32 33 32 33 33 34 34 33 33 33 33
9 11 13 15 18 21 23 24 25 25 25 25 24 23 22 21 18 18 18 18 17 18 19 20 21 22 23 24 25 26 27 28 28 29 30 30 31 32 32 33 33 34 35 35 35 35 34 34 33
8 10 11 12 13 15 18 21 22 22 23 23 23 22 21 19 17 16 16 16 16 17 18 19 20 21 22 23 24 26 27 28 29 30 30 31 32 33 34 34 35 35 36 36 35 35 35 35 34
7 7 8 10 12 14 16 18 19 20 21 22 22 22 20 18 17 16 15 16 16 17 19 20 21 22 24 25 26 27 29 30 30 31 32 33 33 34 34 35 36 36 36 36 37 36 36 36 36
6 6 6 8 9 9 10 13 16 17 19 19 18 18 17 15 14 14 14 16 17 18 19 20 21 23 25 26 28 29 30 31 32 32 32 33 33 34 34 35 35 35 36 36 37 37 37 36 37
6 5 5 5 5 7 8 10 12 12 13 12 13 13 13 13 12 13 14 15 17 18 19 21 23 25 27 28 30 31 32 33 33 33 34 34 34 34 34 34 35 35 35 36 36 36 36 36 36
5 5 5 5 4 4 5 6 6 6 7 6 6 7 8 9 11 13 14 16 17 19 21 22 24 26 27 28 30 31 32 33 33 34 34 35 34 34 34 34 34 34 35 35 36 36 36 35 36
4 4 4 4 3 3 5 7 5 3 1 2 2 4 5 7 9 12 14 16 18 19 21 22 23 25 27 28 29 30 30 31 32 33 33 34 34 34 34 34 34 34 34 35 35 36 36 36 36
4 4 4 3 3 3 4 6 7 6 5 2 1 3 5 8 10 12 14 16 18 19 20 22 23 25 26 27 28 28 29 29 30 31 31 32 33 33 34 34 34 35 35 35 35 35 36 36 36
5 5 3 2 2 2 3 4 6 5 4 1 2 5 7 9 11 13 15 16 18 19 21 22 24 25 27 27 28 29 29 29 30 30 31 32 33 34 35 35 35 35 35 35 35 35 36 36 36
5 6 6 5 4 2 2 3 5 5 4 4 5 7 9 11 12 14 15 16 18 20 22 23 25 27 28 29 29 29 30 30 30 31 31 32 33 34 35 36 36 36 36 36 36 36 36 36 36
6 7 7 6 5 4 4 4 5 6 6 6 7 9 10 12 13 14 15 17 19 21 23 25 26 28 29 30 30 31 31 31 31 32 32 33 34 34 35 36 36 36 36 36 36 36 37 37 37
7 8 8 7 6 4 3 4 5 7 8 9 10 11 11 13 14 15 17 19 21 24 26 27 29 30 31 31 31 32 32 32 33 33 34 34 35 35 36 37 37 37 36 36 36 36 37 37 37
8 9 9 8 7 6 4 5 6 8 9 10 11 12 13 15 16 17 19 22 24 26 28 30 31 31 32 32 33 33 33 34 34 35 35 36 36 36 37 37 37 37 37 37 37 37 37 37 37
9 10 9 8 7 7 7 7 8 9 11 12 13 14 15 16 18 20 22 24 26 28 30 31 31 32 33 33 34 34 35 35 36 36 37 37 37 37 37 37 37 37 37 37 37 37 37 37 38
Wind_Direction
356 332 310 299 298 296 322 2 17 28 32 22 16 10 2 354 347 346 344 342 342 336 332 332 339 352 1 359 1 9 14 19 25 36 40 35 25 17 11 4 358 359 3 3 5 11 14 16 18
342 324 300 288 281 279 286 298 329 357 17 17 12 4 358 350 346 341 336 334 329 321 317 320 328 341 352 349 348 351 353 352 351 353 351 346 336 327 324 320 315 315 320 327 331 337 344 351 355
324 309 293 284 274 273 278 286 302 321 342 0 4 1 354 349 342 337 328 322 314 303 304 308 311 321 335 337 333 330 328 325 321 319 315 313 310 306 304 300 297 295 295 296 300 303 306 310 316
310 300 283 275 271 271 271 280 292 303 320 334 345 347 345 345 341 333 323 313 301 293 288 290 292 296 301 305 308 309 306 303 301 301 301 301 299 298 298 295 293 292 291 291 289 286 286 286 287
299 290 277 271 271 267 265 269 278 291 309 322 329 333 334 337 334 329 322 310 301 292 287 284 278 277 278 283 290 293 290 290 292 294 295 296 296 293 293 292 291 291 290 290 289 286 283 281 278
288 283 270 263 265 266 264 263 264 274 291 308 314 320 326 330 330 325 319 309 296 289 286 278 273 272 276 279 284 285 284 285 288 290 291 292 293 293 293 292 292 292 291 289 288 285 284 281 278
281 273 260 258 258 259 260 259 256 260 273 289 298 305 315 319 321 320 316 309 299 290 283 278 273 273 277 279 278 280 284 287 289 290 290 292 292 294 294 294 293 293 292 291 290 286 284 281 278
274 262 248 249 249 251 253 251 252 254 258 272 288 297 304 311 314 313 310 307 299 293 285 275 272 272 273 275 274 276 279 282 286 288 289 290 292 294 293 292 291 291 290 290 289 287 285 281 278
267 253 239 240 242 245 247 244 248 255 258 266 278 287 293 302 308 307 305 300 295 289 285 278 274 272 274 275 275 274 274 277 279 281 282 285 287 289 289 288 288 288 289 289 288 287 286 283 281
260 247 235 237 240 242 244 245 246 251 256 264 274 283 289 295 298 299 297 293 288 284 280 279 272 272 269 269 272 273 270 271 273 274 276 279 280 282 283 283 284 286 287 287 286 287 287 285 282
254 242 234 234 238 240 242 243 247 250 255 261 271 280 285 291 294 294 292 289 285 281 278 277 272 271 269 269 270 271 270 269 268 269 273 276 277 277 278 280 283 286 286 286 285 286 287 285 284
250 240 235 235 238 238 240 244 246 250 256 262 268 276 283 287 290 291 290 287 283 279 278 275 274 272 269 270 269 269 269 270 268 267 271 272 272 275 275 280 282 283 286 287 285 285 285 285 285
249 242 237 236 237 239 241 243 247 252 257 263 271 277 283 287 288 288 286 283 280 276 274 272 273 272 271 272 272 272 272 272 273 273 272 273 272 276 277 280 285 283 283 283 283 282 282 284 283
252 245 241 240 240 241 243 246 250 254 260 267 274 280 284 287 288 287 283 281 279 279 277 277 275 276 278 276 277 279 281 285 281 281 280 281 281 282 281 283 285 285 282 282 281 279 280 280 281
254 247 244 242 242 243 246 249 251 257 264 270 275 280 283 284 284 284 282 281 281 280 280 282 283 284 287 286 289 290 289 286 283 283 282 282 282 281 281 282 284 282 282 281 279 278 278 277 277
255 248 245 246 246 247 250 252 256 261 265 270 274 277 281 282 285 284 286 286 286 285 285 287 287 286 288 290 292 292 293 291 288 286 285 285 285 284 284 284 284 283 281 280 279 278 277 275 274
262 251 251 252 251 252 255 257 260 261 265 268 272 276 279 282 284 287 290 290 290 289 290 292 293 292 293 293 294 295 295 295 293 290 289 288 286 285 285 285 284 282 282 280 279 278 275 274 273
267 259 259 259 261 261 262 263 264 265 267 270 273 276 284 286 288 290 293 295 297 299 301 302 303 301 300 300 302 303 302 300 299 297 294 293 292 290 288 287 285 283 282 281 279 277 275 273 271
279 277 268 266 271 271 270 273 270 267 266 269 270 273 282 286 287 291 295 299 303 305 306 306 307 308 309 309 308 307 305 303 301 299 296 295 293 291 290 288 286 285 283 281 280 278 275 273 271
289 288 289 282 282 277 281 285 279 271 270 266 265 268 276 283 288 292 297 301 304 307 309 311 312 313 312 311 310 309 307 305 304 301 299 297 295 293 290 288 286 284 283 281 279 278 275 273 271
323 329 341 325 314 298 296 297 291 278 270 262 258 264 274 280 289 297 302 306 310 312 313 314 314 314 313 312 311 309 307 306 304 303 301 299 297 295 293 291 288 285 284 282 280 278 276 273 271
336 342 348 350 344 345 343 329 311 281 263 247 244 264 276 281 290 298 304 309 312 314 314 313 313 313 313 311 310 308 306 305 304 303 302 301 299 298 296 293 290 288 285 282 280 278 276 273 271
340 348 352 358 5 29 29 19 26 24 158 188 229 271 292 297 301 304 307 309 311 311 312 313 313 314 314 313 311 309 307 306 304 303 302 301 300 298 296 294 292 290 287 284 281 278 276 273 270
345 351 350 4 29 47 41 42 51 61 80 114 213 279 291 298 301 304 306 307 308 310 312 314 316 317 317 316 315 314 312 309 307 305 303 302 300 299 297 295 293 291 288 285 281 278 274 272 270
352 358 6 5 6 32 36 32 34 37 46 43 290 286 288 295 300 303 305 307 310 314 317 319 321 322 322 321 320 319 317 314 311 310 308 306 304 302 300 298 295 292 289 286 282 278 274 271 269
348 358 356 348 346 332 325 338 346 340 329 307 293 290 292 298 302 305 308 312 317 320 323 324 326 328 327 327 326 324 322 320 317 315 313 311 308 306 303 300 297 293 290 286 282 278 274 270 266
337 343 345 338 331 321 313 316 312 308 301 293 292 294 299 303 307 310 315 320 324 327 330 330 331 331 330 329 328 326 325 324 322 320 317 315 312 309 306 303 299 295 291 287 284 279 274 269 265
315 320 325 325 329 333 322 305 294 284 287 291 296 300 305 309 313 320 324 327 330 333 334 333 333 331 330 330 329 328 327 326 325 323 321 318 315 312 308 304 300 296 293 289 285 280 275 270 265
302 305 310 314 317 316 307 300 295 295 299 302 305 309 313 317 323 327 331 333 334 336 335 334 333 332 332 331 330 329 329 328 327 325 324 321 318 314 310 306 302 299 295 291 287 281 276 271 266
291 294 300 307 315 317 316 315 307 306 306 307 309 313 319 326 330 333 334 335 336 337 336 335 334 333 333 332 331 331 330 330 329 327 326 323 320 316 312 309 305 301 298 294 289 284 278 272 267
Height
5911 5911 5910 5911 5911 5910 5908 5907 5906 5906 5905 5905 5905 5904 5904 5904 5904 5905 5903 5901 5901 5901 5900 5900 5900 5899 5899 5899 5899 5899 5899 5899 5899 5900 5900 5900 5900 5900 5900 5900 5900 5900 5900 5900 5900 5899 5899 5898 5898
5911 5910 5911 5910 5909 5908 5908 5906 5906 5905 5905 5905 5904 5904 5904 5903 5903 5902 5901 5901 5901 5900 5900 5900 5899 5899 5898 5898 5898 5898 5898 5898 5898 5899 5899 5899 5899 5899 5899 5899 5899 5899 5899 5899 5899 5898 5898 5898 5898
5910 5910 5910 5909 5907 5906 5906 5906 5905 5905 5905 5904 5904 5904 5903 5903 5902 5902 5901 5901 5900 5900 5900 5899 5899 5898 5898 5897 5897 5897 5897 5897 5897 5897 5897 5897 5897 5897 5897 5897 5897 5897 5897 5897 5897 5897 5897 5897 5897
5909 5909 5908 5907 5905 5905 5904 5904 5904 5903 5903 5903 5903 5903 5902 5902 5902 5901 5900 5900 5900 5900 5899 5898 5898 5897 5897 5896 5896 5896 5896 5896 5896 5896 5896 5896 5895 5895 5895 5895 5895 5895 5895 5895 5895 5895 5895 5895 5895
5907 5906 5905 5903 5902 5902 5902 5902 5902 5902 5902 5902 5901 5901 5901 5901 5901 5900 5900 5899 5899 5899 5898 5897 5896 5896 5895 5895 5895 5895 5895 5894 5894 5894 5894 5893 5893 5893 5893 5893 5892 5893 5893 5893 5893 5893 5893 5893 5893
5905 5904 5902 5900 5899 5899 5900 5900 5900 5900 5900 5900 5900 5900 5900 5900 5899 5899 5899 5899 5898 5898 5897 5896 5895 5895 5894 5894 5893 5893 5893 5893 5892 5892 5891 5891 5891 5890 5890 5890 5890 5890 5890 5890 5890 5890 5890 5890 5890
5902 5900 5898 5897 5896 5896 5897 5897 5897 5897 5897 5898 5898 5898 5898 5898 5898 5898 5897 5897 5897 5896 5896 5895 5894 5893 5892 5892 5891 5891 5891 5891 5890 5890 5889 5889 5889 5888 5888 5888 5887 5887 5886 5886 5886 5886 5886 5886 5887
5898 5897 5895 5893 5893 5893 5893 5894 5894 5895 5895 5895 5895 5895 5896 5896 5896 5895 5895 5895 5895 5894 5893 5892 5891 5891 5890 5889 5889 5889 5889 5888 5888 5887 5887 5886 5886 5886 5885 5885 5884 5883 5883 5883 5882 5882 5882 5882 5882
5892 5893 5891 5889 5889 5889 5889 5890 5891 5891 5892 5892 5892 5893 5893 5894 5894 5893 5893 5893 5892 5891 5890 5890 5889 5888 5887 5886 5886 5886 5886 5885 5885 5884 5883 5883 5882 5882 5881 5881 5880 5880 5879 5879 5878 5878 5877 5877 5877
5886 5887 5886 5884 5884 5885 5885 5886 5887 5888 5888 5888 5888 5890 5890 5890 5891 5891 5890 5890 5889 5888 5887 5886 5885 5884 5883 5883 5882 5882 5881 5881 5880 5879 5879 5878 5878 5877 5877 5876 5876 5875 5875 5874 5874 5873 5872 5872 5872
5879 5880 5880 5879 5879 5880 5881 5882 5883 5884 5884 5885 5886 5887 5887 5887 5887 5886 5886 5885 5884 5883 5882 5881 5881 5880 5879 5878 5878 5877 5876 5876 5875 5874 5874 5873 5873 5872 5871 5871 5870 5870 5869 5869 5868 5868 5867 5866 5866
5872 5873 5874 5874 5875 5876 5877 5878 5879 5880 5881 5882 5883 5884 5884 5884 5884 5883 5882 5881 5880 5879 5878 5877 5876 5875 5874 5873 5872 5871 5870 5869 5869 5868 5868 5867 5866 5866 5865 5865 5864 5864 5863 5862 5862 5862 5861 5861 5860
5866 5868 5869 5870 5871 5872 5873 5875 5876 5876 5877 5878 5879 5880 5880 5880 5879 5878 5877 5876 5875 5874 5873 5872 5871 5869 5868 5867 5866 5864 5863 5862 5862 5861 5861 5860 5860 5859 5859 5858 5858 5856 5856 5856 5856 5856 5855 5855 5854
5862 5863 5865 5866 5867 5868 5870 5871 5872 5873 5874 5875 5876 5876 5876 5876 5875 5874 5873 5871 5870 5869 5868 5867 5865 5864 5862 5861 5859 5857 5857 5856 5856 5855 5855 5854 5853 5853 5853 5852 5851 5850 5850 5850 5849 5849 5849 5849 5848
5860 5861 5862 5863 5864 5865 5866 5868 5869 5870 5871 5871 5872 5872 5871 5871 5870 5869 5868 5867 5866 5864 5863 5862 5861 5859 5858 5856 5855 5853 5852 5852 5851 5849 5849 5848 5848 5847 5847 5846 5845 5844 5843 5843 5842 5842 5842 5842 5841
5858 5859 5860 5861 5861 5862 5865 5865 5866 5867 5867 5867 5867 5867 5867 5866 5865 5864 5864 5862 5861 5860 5859 5858 5856 5855 5853 5852 5851 5849 5847 5846 5845 5844 5843 5842 5841 5840 5839 5838 5837 5837 5836 5835 5835 5834 5834 5834 5833
5857 5858 5858 5859 5859 5859 5860 5861 5862 5862 5863 5863 5863 5863 5862 5862 5861 5860 5859 5858 5857 5856 5855 5854 5852 5851 5849 5848 5846 5844 5842 5840 5839 5838 5836 5835 5834 5833 5832 5831 5829 5828 5827 5827 5826 5826 5825 5825 5825
5857 5857 5857 5858 5857 5857 5857 5857 5857 5857 5858 5858 5858 5858 5858 5857 5857 5856 5855 5855 5853 5852 5851 5850 5848 5846 5845 5843 5841 5839 5837 5835 5833 5830 5829 5828 5826 5825 5823 5821 5820 5819 5818 5817 5817 5816 5816 5816 5816
5857 5857 5856 5856 5855 5855 5854 5853 5853 5852 5852 5853 5853 5853 5854 5854 5853 5853 5852 5851 5850 5849 5847 5846 5844 5842 5840 5838 5836 5833 5831 5829 5826 5824 5822 5820 5818 5816 5814 5813 5811 5810 5808 5807 5807 5806 5806 5806 5806
5857 5856 5856 5855 5854 5853 5851 5850 5848 5847 5847 5847 5848 5849 5850 5850 5849 5849 5849 5848 5847 5846 5844 5842 5840 5837 5835 5833 5830 5827 5825 5822 5819 5817 5814 5811 5809 5807 5805 5804 5802 5800 5799 5798 5797 5796 5796 5796 5796
5857 5856 5855 5854 5852 5851 5850 5848 5845 5843 5843 5843 5844 5846 5847 5848 5847 5847 5847 5846 5844 5842 5841 5838 5836 5833 5830 5827 5824 5821 5818 5815 5812 5809 5806 5803 5801 5799 5796 5795 5793 5791 5789 5788 5787 5786 5786 5786 5786
5857 5856 5855 5854 5852 5851 5849 5847 5844 5841 5841 5841 5842 5844 5845 5846 5846 5845 5845 5843 5841 5839 5837 5835 5832 5829 5826 5822 5819 5815 5812 5808 5805 5801 5798 5795 5792 5790 5787 5785 5783 5781 5780 5778 5777 5776 5775 5776 5776
5857 5856 5855 5854 5853 5851 5849 5846 5845 5841 5840 5842 5843 5844 5844 5845 5845 5844 5843 5841 5839 5837 5834 5832 5828 5825 5821 5818 5814 5810 5806 5802 5798 5794 5791 5787 5784 5781 5779 5776 5774 5772 5770 5769 5767 5766 5765 5765 5765
5857 5857 5855 5854 5853 5852 5850 5848 5846 5843 5843 5843 5843 5844 5844 5844 5843 5842 5841 5839 5837 5834 5831 5828 5824 5820 5816 5812 5808 5804 5799 5795 5791 5787 5784 5780 5776 5773 5770 5767 5765 5762 5760 5758 5757 5756 5755 5755 5755
5857 5857 5856 5854 5853 5853 5851 5849 5848 5846 5845 5844 5844 5844 5844 5843 5842 5841 5839 5837 5834 5831 5827 5824 5820 5815 5810 5806 5801 5797 5793 5788 5784 5780 5776 5772 5768 5764 5761 5758 5755 5752 5750 5748 5747 5746 5745 5744 5745
5856 5856 5856 5855 5853 5852 5851 5849 5849 5847 5845 5844 5844 5844 5843 5842 5840 5838 5836 5834 5830 5827 5823 5818 5814 5809 5804 5799 5795 5790 5786 5781 5777 5772 5768 5764 5759 5755 5751 5748 5745 5742 5740 5738 5736 5735 5734 5734 5734
5856 5855 5855 5854 5852 5851 5850 5850 5848 5846 5845 5844 5843 5842 5841 5840 5838 5835 5833 5829 5826 5822 5817 5813 5808 5803 5798 5793 5788 5784 5779 5774 5769 5765 5760 5755 5751 5746 5742 5738 5735 5731 5729 5727 5725 5724 5723 5723 5723
5855 5854 5853 5852 5851 5850 5849 5848 5847 5845 5844 5843 5842 5840 5839 5837 5834 5831 5828 5824 5820 5816 5811 5807 5802 5797 5792 5787 5782 5777 5772 5767 5762 5757 5752 5747 5742 5737 5733 5728 5724 5721 5718 5716 5714 5712 5711 5711 5712
5854 5853 5852 5851 5850 5849 5848 5849 5846 5844 5842 5841 5839 5837 5835 5833 5830 5826 5823 5819 5814 5810 5806 5801 5796 5791 5786 5781 5776 5771 5765 5760 5755 5749 5744 5738 5733 5728 5723 5718 5714 5710 5707 5704 5702 5701 5699 5699 5699
5852 5851 5851 5850 5849 5847 5846 5848 5843 5842 5840 5838 5836 5834 5831 5828 5824 5821 5817 5813 5809 5805 5800 5795 5791 5786 5781 5775 5770 5764 5759 5753 5747 5741 5736 5730 5724 5719 5713 5708 5704 5700 5696 5693 5690 5688 5687 5687 5687